Regional Weather Roundup
Issued by NWS

Home | Current Version | Previous Version | Text Only | Print | Product List | Glossary On
Versions: 1 2 3 4 5 6 7 8 9 10 11 12 13 14 15 16 17 18 19 20 21 22 23 24 25 26 27 28 29 30 31 32 33 34 35 36 37 38 39 40 41 42 43 44 45 46 47 48 49 50
000
ASUS43 KLMK 220102
RWRKY
KENTUCKY REGIONAL WEATHER ROUNDUP
NATIONAL WEATHER SERVICE LOUISVILLE KY
800 PM EST WED FEB 21 2018

NOTE "FAIR" INDICATES FEW OR NO CLOUDS BELOW 12,000 FEET
WITH NO SIGNIFICANT WEATHER AND/OR OBSTRUCTIONS TO VISIBILITY.

KYZ001>023-026-027-061>063-070>075-220200-
WESTERN AND SOUTH CENTRAL KENTUCKY

CITY           SKY/WX    TMP DP  RH WIND       PRES   REMARKS
PADUCAH        LGT RAIN  39  37  92 E10       30.39S WCI  32
HENDERSON      LGT RAIN  41  40  96 E10       30.43F
OWENSBORO      LGT RAIN  43  42  97 E7        30.44F
HOPKINSVILLE   RAIN      43  43  99 N12       30.40F
BOWLING GREEN  CLOUDY    48  47  96 N9        30.41R
GLASGOW        NOT AVBL
$$

KYZ024-025-028>034-038-045-046-053-220200-
NORTH CENTRAL KENTUCKY

CITY           SKY/WX    TMP DP  RH WIND       PRES   REMARKS
LOUISVILLE/SDF LGT RAIN  47  45  93 N13       30.44R
LOUISVILLE/LOU LGT RAIN  47  47 100 N6        30.44S
FORT KNOX      LGT RAIN  46  46  99 N8        30.43R
$$

KYZ035>037-039>044-047>052-055>060-089>105-220200-
NORTHEAST KENTUCKY

CITY           SKY/WX    TMP DP  RH WIND       PRES   REMARKS
LEXINGTON      CLOUDY    49  46  90 N15       30.41S
COVINGTON      LGT RAIN  43  43 100 NE13      30.48R
FRANKFORT      CLOUDY    48  45  89 N12G20    30.40F
$$

KYZ054-064>069-076>088-106>120-220200-
SOUTHEAST KENTUCKY

CITY           SKY/WX    TMP DP  RH WIND       PRES   REMARKS
JACKSON        LGT RAIN  59  56  89 VRB3      30.38R
LONDON         CLOUDY    61  56  83 NW5       30.37R
SOMERSET       RAIN      57  55  94 MISG      30.38R
MIDDLESBORO    FAIR      64  60  87 CALM      30.33R
MONTICELLO     NOT AVBL
$$




USA.gov is the U.S. government's official web portal to all federal, state and local government web resources and services.